Regional Weather Roundup
Issued by NWS

Home | Current Version | Previous Version | Text Only | Print | Product List | Glossary Off
Versions: 1 2 3 4 5 6 7 8 9 10 11 12 13 14 15 16 17 18 19 20 21 22 23 24 25 26 27 28 29 30 31 32 33 34 35 36 37 38 39 40 41 42 43 44 45 46 47 48 49 50

000
ASUS43 KLOT 190803
RWRIL

ILLINOIS REGIONAL WEATHER ROUNDUP
NATIONAL WEATHER SERVICE CHICAGO/ROMEOVILLE IL
200 AM CST SUN FEB 19 2017

NOTE: "FAIR" INDICATES FEW OR NO CLOUDS BELOW 12,000 FEET WITH NO
SIGNIFICANT WEATHER AND/OR OBSTRUCTIONS TO VISIBILITY.

* THESE STATIONS ARE NOT UNDER NWS QUALITY CONTROL. THEY ALSO MAY NOT
  REPORT WEATHER SUCH AS PRECIPITATION OR FOG.

ILZ001-002-007-009-015-016-024-190900-
NORTHWEST ILLINOIS

CITY           SKY/WX    TMP DP  RH WIND       PRES   REMARKS
MOLINE         CLOUDY    33  28  81 CALM      29.90R
STERLING*      PTCLDY    32  31  96 CALM      29.90S
SAVANNA*       CLEAR     32  31  97 CALM      29.91R
$$

ILZ003-004-008-010-011-017-018-190900-
NORTH CENTRAL ILLINOIS

CITY           SKY/WX    TMP DP  RH WIND       PRES   REMARKS
ROCKFORD       CLOUDY    33  30  88 W3        29.92R
FREEPORT*      PTCLDY    31  29  94 CALM      29.91R
ROCHELLE*      CLEAR     32  32  99 CALM      29.89F
DE KALB*       CLEAR     40  37  86 N3        29.89S
PERU*          CLEAR     40  32  74 CALM      29.91R
$$

ILZ005-006-012>014-019>023-190900-
NORTHEAST ILLINOIS

CITY           SKY/WX    TMP DP  RH WIND       PRES   REMARKS
CHICAGO-OHARE  PTCLDY    39  34  82 CALM      29.88R
CHICAGO-MIDWAY PTCLDY    45  34  65 CALM      29.89R
AURORA         CLEAR     33  29  85 CALM      29.89R
LANSING*       CLEAR     35  34  98 CALM      29.90R
JOLIET*        CLEAR     36  35  96 CALM      29.90R
WAUKEGAN       PTCLDY    41  37  86 NW5       29.88R
DUPAGE AIRPORT CLOUDY    35  31  85 CALM      29.88R
KANKAKEE*      CLEAR     37  35  92 CALM      29.91R
WHEELING       CLEAR     33  30  88 CALM      29.89R
MORRIS*        CLEAR     37  32  85 CALM      29.90R
ROMEOVILLE*    CLEAR     41  38  91 CALM      29.89S
NORTHERLY ISL    N/A     44  33  65 CALM        N/A
$$

LMZ740>746-190900-
SOUTHERN LAKE MICHIGAN

STATION/POSITION SKY/WX   TEMP    WIND        PRES    VSBY  WAVE
                          AIR SEA DIR/SP/G                  HT/PER
                          (F)     (DEG/KT/KT) (MB)    (MI)  (FT/S)
HARRISON CRIB              53     320/  6/  6   N/A
BURNHAM HARBOR             43      CALM  /  3   N/A
CALUMET HARBOR             45     250/  2/  2 1011.4R
BURNS HARBOR               41     230/  2/  2 1012.9R
MICHIGAN CITY              40     180/  2/  3   N/A
$$

ILZ025>027-034>036-040-047-049-050-058-095>099-190900-
WEST-CENTRAL ILLINOIS

CITY           SKY/WX    TMP DP  RH WIND       PRES   REMARKS
QUINCY         CLEAR     45  41  86 S6        29.91R
GALESBURG*     CLOUDY    35  30  83 CALM        N/A
MACOMB*        CLOUDY    37  34  86 CALM      29.93R
JACKSONVILLE*  FOG       39  39  99 S3        29.92R VSB 1/4
PITTSFIELD*    CLEAR     39  36  88 SW3       29.93R
$$

ILZ028>032-037-038-041>044-048-051>054-059>061-190900-
CENTRAL ILLINOIS

CITY           SKY/WX    TMP DP  RH WIND       PRES   REMARKS
PONTIAC        CLEAR     40  39  95 CALM      29.93R
BLOOMINGTON    LGT RAIN  44  43  96 SW7       29.93R VSB 1/4
DECATUR        FOG       49  48  97 SW8       29.93R VSB 3/4
PEORIA         CLEAR     38  35  89 CALM      29.92R
LACON*         CLEAR     34  33  96 CALM      29.91R
LINCOLN*       FOG       44  44 100 CALM      29.93R VSB 1/4
SPRINGFIELD    FOG       43  42  97 S5        29.93R VSB 1/4
TAYLORVILLE    FOG       47  47  99 CALM      29.94R VSB 1/4
$$

ILZ033-039-045-046-055>057-062-063-190900-
EAST-CENTRAL ILLINOIS

CITY           SKY/WX    TMP DP  RH WIND       PRES   REMARKS
CHAMPAIGN      FOG       49  48  97 SW13      29.92R VSB 3/4
RANTOUL*       DRZL/FOG  49  49  99 W8        29.91R VSB 1/4
MATTOON        CLOUDY    50  50 100 SW6       29.92R
PARIS*         CLOUDY    50  49  96 SW8       29.93R FOG
$$

ILZ079-100>102-190900-
SOUTHWEST ILLINOIS

CITY           SKY/WX    TMP DP  RH WIND       PRES   REMARKS
ALTON          FOG       44  44 100 S3        29.95R VSB 1/4
BELLEVILLE     FOG       41  41 100 CALM      29.94R VSB 1/2
CAHOKIA*       FOG       40  37  89 CALM      29.94R VSB 1/4
SPARTA*        CLOUDY    52  50  94 S7        29.96R
$$

ILZ064>066-069>071-074>076-080>082-084>086-088>090-092>094-190900-
SOUTH-CENTRAL ILLINOIS

CITY           SKY/WX    TMP DP  RH WIND       PRES   REMARKS
CARBONDALE     MOCLDY    50  50 100 SW7       29.96R FOG
CAIRO*         FOG       44  44 100 CALM      29.99R VSB<1/4
EFFINGHAM*     CLOUDY    52  51  98 SW7       29.96R
MARION         CLOUDY    54  52  94 SW7       29.97R FOG
MT. VERNON     CLOUDY    51  50  96 SW9       29.96R
CENTRALIA*     CLOUDY    52  51  97 SW6       29.94R FOG
SALEM*         CLOUDY    53  50  90 SW7       29.94R FOG
METROPOLIS*    FOG       44  44  99 CALM      29.99R VSB 1/4
$$

ILZ067-068-072-073-078-083-087-091-190900-
SOUTHEAST ILLINOIS

CITY           SKY/WX    TMP DP  RH WIND       PRES   REMARKS
LAWRENCEVILLE  FOG       47  46  97 S6        29.95S VSB 1/4
FLORA*         CLOUDY    52  50  93 SW7       29.95R
FAIRFIELD*     CLOUDY    50  50 100 SW6       29.95R FOG
HARRISBURG*    FOG       50  50 100 W5        29.98R VSB 1/2
ROBINSON*      CLOUDY    48  48  99 SW8       29.94S FOG
CARMI*         FOG       48  48 100 SW8       29.96R VSB 1/2
$$

ABBREVIATIONS USED IN REMARKS
   TC - TEMPERATURE IN CELSIUS
  WCI - WIND CHILL INDEX
   HX - HEAT INDEX
  VSB - VISIBILITY
$$





USA.gov is the U.S. government's official web portal to all federal, state and local government web resources and services.